Regional Weather Roundup
Issued by NWS Albany, NY

Home | Current Version | Previous Version | Text Only | Print | Product List | Glossary On
Versions: 1 2 3 4 5 6 7 8 9 10 11 12 13 14 15 16 17 18 19 20 21 22 23 24 25 26 27 28 29 30 31 32 33 34 35 36 37 38 39 40 41 42 43 44 45 46 47 48 49 50
000
ASUS41 KALY 031310
RWRALY

NEW YORK STATE HOURLY WEATHER ROUNDUP
NATIONAL WEATHER SERVICE ALBANY NY
800 AM EST TUE MAR 03 2015

NOTE: "FAIR" INDICATES FEW OR NO CLOUDS BELOW 12,000 FEET WITH NO
SIGNIFICANT WEATHER AND/OR NO OBSTRUCTIONS TO VISIBILITY.

NYZ032-033-038>043-046>054-057>066-NYZ062>081-031400-
EAST


CITY           SKY/WX    TMP DP  RH WIND       PRES   REMARKS
ALBANY         PTSUNNY   16   5  62 E3        30.41S
GLENS FALLS    MOSUNNY    5   0  79 CALM      30.41R
POUGHKEEPSIE   MOSUNNY    8   2  76 CALM      30.43S
NEWBURGH       SUNNY     16   9  73 W7        30.41R WCI   6
MONTGOMERY     MOSUNNY    8   1  73 CALM      30.40R
WHITE PLAINS   SUNNY     19   8  62 NW3       30.40S
ISLIP          PTSUNNY   18  14  84 NW5       30.42R WCI  11
NEW YORK CITY  PTSUNNY   26   9  48 W3        30.44S
CENTRAL PARK   MOSUNNY   25   8  48 CALM      30.45S
$$

NYZ005>009-017-018-044>046-055-056-031400-
CENTRAL


CITY           SKY/WX    TMP DP  RH WIND       PRES   REMARKS
FULTON         PTSUNNY    5   2  87 CALM      30.36F
SYRACUSE       CLOUDY     3   3 100 SE6       30.36F WCI  -8
ROME           PTSUNNY   -1  -4  87 SE7       30.39F WCI -14
ELMIRA         CLOUDY     8   5  87 CALM      30.35F
BINGHAMTON     PTSUNNY   11   7  84 CALM      30.29R
MONTICELLO     FAIR       7   1  78 W3        30.33R
$$

NYZ026>034-041>043-031400-
NORTH


CITY           SKY/WX    TMP DP  RH WIND       PRES   REMARKS
WATERTOWN      MOSUNNY    2  -2  83 SE3       30.36F
FORT DRUM      NOT AVBL
MASSENA        MOSUNNY   -5  -8  87 SW3       30.37S
SARANAC LAKE   MOSUNNY  -11 -14  86 CALM      30.23S
PLATTSBURGH    SUNNY      3  -3  76 CALM      30.37S
$$

NYZ001>004-010>016-019>021-031400-
WEST


CITY           SKY/WX    TMP DP  RH WIND       PRES   REMARKS
NIAGARA FALLS  CLOUDY    13   8  81 SE6       30.25F WCI   4
BUFFALO        CLOUDY    13   6  74 SE9       30.25F WCI   1
DUNKIRK        CLOUDY    19  12  74 SE5       30.24F WCI  12
JAMESTOWN      CLOUDY    10   9  92 S7        30.16F WCI   0
WELLSVILLE     CLOUDY    10   6  84 SE8       30.19F WCI  -2
ROCHESTER      CLOUDY    12   6  77 S6        30.31F WCI   3
PENN YAN       CLOUDY    12   7  80 SW9       30.32F WCI   0
$$

             KEY
       WCI = WIND CHILL INDEX
       VSB = VISIBILITY
       HX  = HEAT INDEX
$$



USA.gov is the U.S. government's official web portal to all federal, state and local government web resources and services.